sat.trackr.live / text

‹ back to catalog

STARLINK-4168

NORAD 52845 · 2022-062R

PAYLOAD ACTIVE UNKNOWN

§ Identity

Operator
Country
US
Launch date
2022-06-17
Launch site
AFETR
Launch vehicle
Mass (kg)
RCS (m²)

Purposes: comms

External: N2YO · Heavens-Above · Gunter

§ Orbital elements

Epoch: 2026-05-25T00:47:23.957088Z

Period
95.44 min
Inclination
53.2137°
Eccentricity
0.0001338
Mean motion
15.08839372 rev/d
Perigee alt
538.8 km
Apogee alt
540.7 km
Semi-major
6,917.9 km
B*
2.5387e-5
RAAN
51.4683°
Arg perigee
87.1565°
Mean anomaly
272.9581°
Rev number
21,731

§ Raw data

STARLINK-41681 52845U 22062R   26145.03291617  .00000116  00000+0  25387-4 0  99992 52845  53.2137  51.4683 0001338  87.1565 272.9581 15.08839372217315

JSON: /api/v1/satellites/52845 · /tle

For live sub-satellite position, see the globe view (requires WebGL).

§ Visibility from observer

Set your observer location to see the next 7 days of passes ≥ 10°. The values pass through the URL so the page stays shareable.

No JS? Fill the form by hand. The geolocation button needs JavaScript.